Location: Dayton
(39.7590°N, 84.1920°W)
Time: 05:08:44
(UTC-04:00)

ATLAS CENTAUR R/B - Visible Passes

Search period start: 25 May 2016 00:00
Search period end: 04 June 2016 00:00
Orbit: 221 x 8340 km, 57.3° (Epoch: 31 March)

Date Brightness Start Highest point End Pass type
(mag) Time Alt. Az. Time Alt. Az. Time Alt. Az.
25 May 7.4 02:57:36 10° NW 03:13:57 13° WNW 03:27:34 10° W visible
25 May 7.0 20:07:54 10° WNW 21:03:09 71° NE 21:43:23 10° ESE visible
25 May 6.6 23:30:46 10° NW 00:24:01 58° WSW 00:44:51 28° SSW visible
26 May 6.9 20:17:14 10° NW 21:13:28 74° NE 21:51:54 11° SE visible
26 May 6.7 23:40:08 10° NW 00:31:39 53° W 00:52:54 26° SSW visible
27 May 6.8 20:26:18 10° NW 21:23:16 77° NE 21:59:47 12° SE visible
27 May 6.7 23:49:18 10° NW 00:38:53 48° W 01:00:45 23° SSW visible
28 May 6.8 20:35:05 10° NW 21:32:32 81° NE 22:07:28 13° SE visible
28 May 6.8 23:58:17 10° NW 00:45:45 43° W 01:08:24 19° SSW visible
29 May 6.8 20:43:37 10° NW 21:41:20 85° NE 22:14:57 14° SE visible
30 May 6.9 00:07:07 10° NW 00:52:15 39° W 01:15:52 16° SW visible
30 May 6.8 20:51:53 10° NW 21:49:38 90° NE 22:22:14 14° SE visible
31 May 7.0 00:15:50 10° NW 00:58:24 34° W 01:23:08 13° SW visible
31 May 6.8 20:59:52 10° NW 21:57:28 86° WSW 22:29:20 14° SSE visible
01 Jun 7.1 00:24:28 10° NW 01:04:13 30° W 01:29:43 10° SW visible
01 Jun 6.8 21:07:36 10° NW 22:04:52 81° WSW 22:36:14 13° SSE visible
02 Jun 7.2 00:33:03 10° NW 01:09:43 27° W 01:34:25 10° SW visible
02 Jun 6.8 21:15:04 10° NW 22:11:49 77° WSW 22:42:55 13° SSE visible
03 Jun 7.3 00:41:41 10° NW 01:14:54 23° W 01:38:28 10° WSW visible
03 Jun 6.8 21:22:18 10° NW 22:18:21 72° WSW 22:49:25 11° SSE visible
